Weather Roundup
Issued by NWS

Home | Current Version | Previous Version | Graphics & Text | Print | Product List | Glossary Off
Versions: 1 2 3 4 5 6 7 8 9 10 11 12 13 14 15 16 17 18 19 20 21 22 23 24 25 26 27 28 29 30 31 32 33 34 35 36 37 38 39 40 41 42 43 44 45 46 47 48 49 50

966
NZUS93 KARX 241359
HRRWXR

CURRENT HOURLY OBSERVATIONS ACROSS
MUCH OF THE UPPER MISSISSIPPI VALLEY
NATIONAL WEATHER SERVICE LA CROSSE WI
900 AM CDT WED MAY 24 2017


...SOUTHEAST MINNESOTA...


CITY           SKY/WX    TMP DP  RH WIND       PRES   REMARKS
ROCHESTER      CLOUDY    50  47  89 N13       29.75R
ROCHESTER/MAYO NOT AVBL
WINONA         CLOUDY    54  46  76 NE8       29.73F
AUSTIN         CLOUDY    48  45  87 N7        29.74S
ALBERT LEA     CLOUDY    50  48  93 N10       29.75S
DODGE CENTER   CLOUDY    48  45  87 N9        29.75S
PRESTON        CLOUDY    49  46  87 N9        29.73S
OWATONNA       CLOUDY    46  45  93 N7        29.77S
FARIBAULT      CLOUDY    48  45  87 N7        29.78S
$$

...ELSEWHERE IN MINNESOTA...


CITY           SKY/WX    TMP DP  RH WIND       PRES   REMARKS
MINNEAPOLIS    CLOUDY    50  43  77 N9        29.79S
INTNL FALLS    SUNNY     54  39  57 VRB5      29.86S
DULUTH         CLOUDY    52  44  74 E14       29.83R
RED WING       CLOUDY    52  43  71 NE3       29.76S
REDWOOD FALLS  PTSUNNY   53  44  71 NE8       29.79F
MANKATO        CLOUDY    47  44  90 N13       29.79R
WORTHINGTON    CLOUDY    48  44  86 N12       29.80F
FAIRMONT       CLOUDY    47  45  93 NE9       29.78R
$$

...SOUTHWEST WISCONSIN...


CITY           SKY/WX    TMP DP  RH WIND       PRES   REMARKS
LA CROSSE      CLOUDY    54  49  83 N8        29.71S
PRAIRIE DU CHI CLOUDY    53  47  81 N3        29.68S
BOSCOBEL       CLOUDY    54  49  83 N9        29.68S
LONE ROCK      CLOUDY    52  49  89 NE10      29.68R FOG
PLATTEVILLE    CLOUDY    51  51  99 N12       29.66S
FORT MC COY    CLOUDY    49  48  97 N3        29.72R
MAUSTON-NEW LI CLOUDY    49  48  96 CALM      29.69S FOG
VIROQUA        CLOUDY    49  48  96 MISG      29.69R
WIS DELLS      CLOUDY    48  47  96 NE6       29.68S FOG
$$

...ELSEWHERE IN WISCONSIN...


CITY           SKY/WX    TMP DP  RH WIND       PRES   REMARKS
MILWAUKEE      LGT RAIN  49  48  97 N16       29.64F VSB 3/4
MADISON        CLOUDY    51  50  96 N9        29.65S FOG
GREEN BAY      LGT RAIN  50  50 100 N13       29.70S FOG
EAU CLAIRE     NOT AVBL
BLACK RVR FLS  LGT RAIN  50  50  99 NE7       29.72S
MEDFORD        CLOUDY    47  44  88 NE8       29.74S
WAUSAU         LGT RAIN  48  47  96 N7        29.71S
WIS RAPIDS     CLOUDY    50  48  93 NE7       29.71F
MARSHFIELD     CLOUDY    49  46  90 NE10      29.71S
RICE LAKE      CLOUDY    49  44  83 N10       29.79S
$$

...NORTHEAST IOWA...


CITY           SKY/WX    TMP DP  RH WIND       PRES   REMARKS
WATERLOO       CLOUDY    53  48  83 NE15      29.68S HAZE
DUBUQUE        CLOUDY    51  49  92 N9        29.65S
DECORAH        CLOUDY    52  48  87 NE8G14    29.69S
MASON CITY     CLOUDY    50  47  89 N13       29.74S
CHARLES CITY   CLOUDY    52  50  93 NE14      29.71S
OELWEIN        CLOUDY    52  50  93 NE13G18   29.68S
$$

...ELSEWHERE IN IOWA...


CITY           SKY/WX    TMP DP  RH WIND       PRES   REMARKS
DES MOINES     CLOUDY    55  50  83 N10       29.68S
IOWA CITY      CLOUDY    56  52  86 NE7       29.65S
FORT DODGE     CLOUDY    52  48  87 N6        29.75R
MARSHALLTOWN   CLOUDY    52  50  93 N16       29.68R
CEDAR RAPIDS   CLOUDY    53  52  96 NE14      29.64S
$$

...NORTHERN ILLINOIS...


CITY           SKY/WX    TMP DP  RH WIND       PRES   REMARKS
CHICAGO-OHARE  CLOUDY    57  52  83 N14       29.58S
CHICAGO-MIDWAY CLOUDY    56  52  86 N13       29.57S
MOLINE         CLOUDY    56  51  84 VRB3      29.61F HAZE
ROCKFORD       CLOUDY    54  51  90 N9        29.64F FOG
PEORIA         MOSUNNY   58  54  86 N8        29.58F
$$

NOTE: "FAIR" INDICATES FEW OR NO CLOUDS BELOW 12,000 FEET WITH NO
SIGNIFICANT WEATHER AND/OR OBSTRUCTIONS TO VISIBILITY. WIND
SPEEDS ARE IN MILES-PER-HOUR.




USA.gov is the U.S. government's official web portal to all federal, state and local government web resources and services.